CAPE
3 2 3 3 2 2 2 0 0 0 0 0 0 0 0 0 0 0 0 0 0 0 0 0 0 0 0 0 0 0 0 0 0 0 0 0 0 0 0 0 0 0 0 100 144
3 3 1 2 1 1 1 0 0 0 0 0 0 0 0 0 0 0 0 0 0 0 0 0 0 0 0 0 0 0 0 0 0 0 0 0 0 0 0 0 0 0 0 145 149
3 3 2 1 2 1 0 0 0 0 0 0 0 0 0 0 0 0 0 0 0 0 0 0 0 0 0 0 0 0 0 0 0 0 0 0 0 0 0 0 0 0 0 62 138
1 1 1 1 2 1 0 0 0 0 0 0 0 0 0 0 0 0 0 0 0 0 0 0 0 0 0 0 0 0 0 0 0 0 0 0 0 0 0 0 0 0 0 0 0
2 0 0 0 0 0 0 0 0 0 0 0 0 0 0 0 0 0 0 0 0 0 0 0 0 0 0 0 0 0 0 0 0 0 0 0 0 0 0 0 0 0 0 0 0
2 2 2 2 0 0 0 0 0 0 0 0 0 0 0 0 0 0 0 0 0 0 0 0 0 0 0 0 0 0 0 0 0 0 0 0 0 0 0 0 0 0 0 0 0
2 1 2 1 1 0 0 0 0 0 0 0 0 0 0 0 0 0 0 0 0 0 0 0 0 0 0 0 0 0 0 0 0 0 0 0 0 0 0 0 0 0 0 0 0
0 1 1 0 1 1 0 0 0 0 0 0 0 0 0 0 0 0 0 0 0 0 0 0 0 0 0 0 0 0 0 0 0 0 0 0 0 0 0 0 0 0 0 0 0
1 0 2 2 4 0 0 0 0 0 0 0 0 0 0 0 0 0 0 0 0 0 0 0 0 0 0 0 0 0 0 0 0 0 0 0 0 0 0 0 0 0 0 0 0
2 0 2 1 1 1 0 0 0 0 0 0 0 0 0 0 0 0 0 0 0 0 0 0 0 0 0 0 0 0 0 0 0 0 0 0 0 0 0 0 0 0 0 0 0
0 0 2 2 1 0 0 0 0 0 0 0 0 0 0 0 0 0 0 0 0 0 0 0 0 0 0 0 0 0 0 0 0 0 0 0 0 0 0 0 0 0 0 0 0
0 0 0 0 0 0 0 0 0 0 0 0 0 0 0 0 0 0 0 0 0 0 0 0 0 0 0 0 0 0 0 0 0 0 0 0 0 0 0 0 0 0 0 0 0
0 0 0 0 0 0 0 0 0 0 0 0 0 0 0 0 0 0 0 0 0 0 0 0 0 0 0 0 0 0 0 0 0 0 0 0 0 0 0 0 0 0 0 0 0
0 0 0 0 0 0 0 0 0 0 0 0 0 0 0 0 0 0 0 0 0 0 0 0 0 0 0 0 0 0 0 0 0 0 0 0 0 0 0 0 0 0 0 0 0
0 0 0 0 0 0 0 0 0 0 0 0 0 0 0 0 0 0 0 0 0 0 0 0 0 0 0 0 0 0 0 0 0 0 0 0 0 0 0 0 0 0 0 0 0
0 0 0 0 0 0 0 0 0 0 0 0 0 0 0 0 0 0 0 0 0 0 0 0 0 0 0 0 2 1 1 0 1 0 0 0 0 0 0 0 0 0 0 0 0
0 0 0 0 0 0 0 0 0 0 0 0 0 0 0 0 0 0 0 0 0 0 0 0 0 0 0 0 0 0 1 5 0 0 0 0 1 0 0 0 0 0 0 0 0
0 0 0 0 0 0 0 0 0 0 0 0 0 0 0 0 0 0 0 0 0 0 0 0 0 0 0 0 0 0 11 1 0 0 0 0 0 0 0 0 0 0 0 0 0
0 0 0 0 0 0 0 0 0 0 0 0 0 0 0 0 0 0 0 1 0 0 0 0 0 0 0 0 10 0 0 4 1 0 0 0 0 0 1 1 0 0 0 0 0
0 0 0 0 0 0 0 0 0 0 0 0 0 1 0 0 0 0 3 0 0 0 0 0 0 0 0 0 5 16 14 3 11 0 0 0 0 0 5 0 0 0 0 0 0
0 0 0 0 0 0 0 0 0 0 0 0 0 0 1 0 0 0 0 0 0 0 0 0 0 0 0 0 0 2 4 3 0 2 0 0 0 68 0 0 0 0 0 0 0
0 0 0 0 0 0 1 0 0 0 0 0 0 0 3 0 0 0 0 7 2 1 1 0 0 0 0 0 0 7 34 5 9 1 0 0 0 13 0 0 0 0 0 0 0
0 0 0 0 0 0 0 0 0 2 1 0 0 0 0 0 1 1 0 0 5 0 3 0 0 0 0 0 0 0 0 0 0 0 0 0 0 50 0 0 0 0 0 0 0
0 0 0 0 0 0 0 0 0 0 16 0 0 0 1 1 6 6 0 0 5 2 0 0 0 0 0 0 0 0 0 0 3 0 0 0 0 6 2 0 0 0 0 0 0
0 0 0 0 0 0 0 0 0 0 0 0 0 0 0 0 0 0 0 0 0 12 1 1 0 0 0 0 0 7 0 3 2 1 4 0 6 0 3 0 0 0 0 0 0
0 0 0 0 0 0 0 0 0 0 0 0 0 0 0 0 0 0 0 0 0 0 1 9 1 0 0 0 0 2 0 0 2 31 11 24 3 0 0 0 0 0 0 0 0
0 0 1 0 0 0 0 0 0 0 0 0 0 0 0 0 0 0 0 0 0 0 1 0 0 0 0 1 0 0 0 40 39 10 2 12 1 3 36 0 0 0 0 0 0
CIN
0 -0 0 -0 -0 0 -0 0 0 0 0 0 0 0 0 0 0 0 0 0 0 0 0 0 0 0 0 0 0 0 0 0 0 0 0 0 0 0 0 0 0 0 0 -17 -81
-0 -0 0 -0 0 -0 0 0 0 0 0 0 0 0 0 0 0 0 0 0 0 0 0 0 0 0 0 0 0 0 0 0 0 0 0 0 0 0 0 0 0 0 0 -20 -24
0 0 -0 0 0 -0 0 0 0 0 0 0 0 0 0 0 0 0 0 0 0 0 0 0 0 0 0 0 0 0 0 0 0 0 0 0 0 0 0 0 0 0 0 -25 -31
-0 -0 -0 0 -0 0 0 0 0 0 0 0 0 0 0 0 0 0 0 0 0 0 0 0 0 0 0 0 0 0 0 0 0 0 0 0 0 0 0 0 0 0 0 0 0
-0 0 0 0 0 0 0 0 0 0 0 0 0 0 0 0 0 0 0 0 0 0 0 0 0 0 0 0 0 0 0 0 0 0 0 0 0 0 0 0 0 0 0 0 0
0 0 0 -0 0 0 0 0 0 0 0 0 0 0 0 0 0 0 0 0 0 0 0 0 0 0 0 0 0 0 0 0 0 0 0 0 0 0 0 0 0 0 0 0 0
0 0 0 0 0 0 0 0 0 0 0 0 0 0 0 0 0 0 0 0 0 0 0 0 0 0 0 0 0 0 0 0 0 0 0 0 0 0 0 0 0 0 0 0 0
0 0 -0 0 0 0 0 0 0 0 0 0 0 0 0 0 0 0 0 0 0 0 0 0 0 0 0 0 0 0 0 0 0 0 0 0 0 0 0 0 0 0 0 0 0
0 0 0 0 0 0 0 0 0 0 0 0 0 0 0 0 0 0 0 0 0 0 0 0 0 0 0 0 0 0 0 0 0 0 0 0 0 0 0 0 0 0 0 0 0
0 0 0 0 0 0 0 0 0 0 0 0 0 0 0 0 0 0 0 0 0 0 0 0 0 0 0 0 0 0 0 0 0 0 0 0 0 0 0 0 0 0 0 0 0
0 0 0 0 0 0 0 0 0 0 0 0 0 0 0 0 0 0 0 0 0 0 0 0 0 0 0 0 0 0 0 0 0 0 0 0 0 0 0 0 0 0 0 0 0
0 0 0 0 0 0 0 0 0 0 0 0 0 0 0 0 0 0 0 0 0 0 0 0 0 0 0 0 0 0 0 0 0 0 0 0 0 0 0 0 0 0 0 0 0
0 0 0 0 0 0 0 0 0 0 0 0 0 0 0 0 0 0 0 0 0 0 0 0 0 0 0 0 0 0 0 0 0 0 0 0 0 0 0 0 0 0 0 0 0
0 0 0 0 0 0 0 0 0 0 0 0 0 0 0 0 0 0 0 0 0 0 0 0 0 0 0 0 0 0 0 0 0 0 0 0 0 0 0 0 0 0 0 0 0
0 0 0 0 0 0 0 0 0 0 0 0 0 0 0 0 0 0 0 0 0 0 0 0 0 0 0 0 0 0 0 0 0 0 -1 0 0 0 0 0 0 0 0 0 0
0 0 0 0 0 0 0 0 0 0 0 0 0 0 0 0 0 0 0 0 0 0 0 0 0 0 0 0 -34 -25 -12 0 -10 0 0 0 0 0 0 0 0 0 0 0 0
0 0 0 0 0 0 0 0 0 0 0 0 0 0 0 0 0 0 0 0 0 -0 0 0 0 0 0 0 0 0 -4 -23 0 0 0 0 -3 0 0 0 0 0 0 0 0
0 0 0 0 0 0 0 0 0 -0 0 0 0 0 0 0 0 0 0 0 0 0 0 0 0 0 0 0 0 0 -9 -6 0 0 0 0 -1 0 0 0 0 0 0 0 0
0 0 0 0 0 0 0 0 0 0 0 0 0 0 0 0 0 0 0 -3 0 0 0 0 0 0 0 0 -7 0 0 -11 -2 0 0 0 0 0 -27 -27 0 0 0 0 0
0 0 0 0 0 0 0 0 -1 0 0 0 0 -0 0 0 0 -2 -10 0 -9 0 0 0 0 0 0 0 -9 -24 -48 -30 -23 -1 0 0 0 0 -101 0 0 0 0 0 0
0 0 0 0 0 0 0 0 0 0 0 0 0 0 -3 0 0 0 0 0 0 0 0 0 0 0 0 0 0 -55 -8 -13 -6 -14 0 0 0 -56 0 0 0 0 0 0 0
0 0 0 0 0 0 -3 0 0 -0 0 0 0 -0 -7 0 0 0 0 -5 -16 -2 -7 0 0 0 0 0 0 -23 -18 -28 -19 -1 0 0 0 -96 0 0 0 0 0 0 0
0 0 0 0 0 0 0 0 0 -5 -1 0 0 0 0 0 -1 -2 0 0 -5 0 -42 0 0 0 0 0 -7 0 0 0 0 0 0 -4 0 -5 0 0 0 0 0 0 0
0 0 0 0 0 0 0 0 0 0 -3 0 0 0 -4 -1 -4 -3 -0 0 -2 -5 0 0 -0 0 0 0 0 0 0 0 -24 0 -6 0 -1 -13 -56 0 0 0 0 0 0
0 0 0 0 0 0 0 0 -0 0 0 0 0 0 0 0 0 0 0 0 0 -4 -13 0 0 0 0 0 0 -41 0 -82 -22 -28 -26 0 -16 -0 -72 0 0 0 0 0 0
0 0 0 0 0 0 0 0 0 0 0 0 0 0 0 0 0 0 0 0 0 0 -4 -9 -4 0 0 0 -0 -6 0 -0 -41 -20 -17 -45 -25 0 -1 0 0 0 0 0 0
0 -1 -0 0 0 0 0 0 0 0 0 0 -0 -0 0 0 -0 0 0 0 0 0 -1 0 0 -0 0 -0 0 0 -1 -29 -28 -52 -61 -55 -84 -99 -48 -58 0 0 0 0 0
Wind_Speed
30 30 30 30 30 29 29 28 28 28 28 29 30 31 31 32 33 30 26 22 20 26 29 30 29 28 28 28 27 28 34 37 37 35 42 38 38 36 33 31 30 30 28 17 1
31 30 30 29 29 29 28 28 28 28 28 29 29 30 31 31 30 24 17 18 24 24 25 25 26 24 24 25 25 26 40 39 38 39 42 40 40 38 35 35 33 31 28 18 12
31 30 30 30 29 29 29 29 28 28 29 29 30 30 30 28 22 17 11 18 21 20 20 22 26 27 28 27 29 30 47 37 45 44 44 44 42 40 39 38 34 32 26 22 14
31 30 30 30 30 30 30 30 30 30 30 30 31 30 30 20 21 13 13 15 18 18 19 20 21 24 26 30 30 37 37 35 44 49 52 53 47 46 43 41 36 37 33 27 27
32 31 31 30 30 30 31 31 31 31 31 31 31 29 24 21 21 11 13 16 19 19 20 23 23 25 31 28 29 40 43 43 44 44 46 51 53 50 49 43 41 40 38 35 34
30 30 31 31 32 32 32 32 32 31 31 31 30 27 20 23 16 10 13 16 16 17 24 24 23 28 28 31 35 35 41 43 43 46 46 44 49 49 53 45 44 43 42 40 35
30 30 31 30 31 31 32 32 32 32 32 31 27 23 22 15 18 18 21 22 25 23 21 22 25 26 29 32 31 36 42 43 42 45 47 39 49 48 48 45 47 47 43 40 35
32 31 31 31 30 29 29 30 30 29 30 28 20 20 20 16 17 18 22 25 24 25 26 27 24 23 28 29 34 36 38 42 34 37 44 38 55 55 44 43 48 48 52 51 40
35 34 32 30 28 27 26 25 22 19 19 17 17 15 21 11 15 16 23 23 26 26 24 24 19 23 26 31 35 29 41 41 47 38 39 35 51 57 48 46 47 49 50 54 48
38 35 34 32 28 26 24 21 13 15 10 11 11 15 16 17 15 21 22 23 26 25 26 24 22 24 27 28 36 36 39 41 44 35 34 39 46 51 48 46 48 48 47 47 54
41 38 37 33 28 25 27 22 20 19 16 11 10 13 30 23 19 21 19 23 25 27 30 28 30 31 32 33 36 40 43 45 46 40 42 42 47 51 44 43 46 49 47 49 50
41 39 37 34 30 26 19 19 25 22 28 5 10 13 3 17 20 20 21 23 26 30 31 30 31 30 35 36 37 38 43 46 46 41 42 46 52 52 48 48 46 43 45 44 44
41 39 37 32 27 21 15 15 24 26 24 23 8 11 11 9 11 17 18 22 26 29 30 33 34 36 37 39 41 40 44 48 50 44 42 46 52 57 54 48 48 47 42 37 38
31 26 36 32 23 23 19 22 27 25 21 14 13 13 15 14 16 7 10 17 24 27 26 26 30 35 36 37 37 45 38 42 45 46 51 37 61 50 53 56 47 48 47 45 43
30 27 24 27 23 23 25 27 25 18 21 14 14 13 16 15 18 22 9 15 23 23 24 27 31 33 36 35 36 44 41 47 46 50 48 46 49 55 42 54 51 48 51 48 46
22 24 19 14 16 20 29 27 22 18 19 15 14 16 15 20 24 19 18 18 16 20 21 27 27 26 30 34 37 42 44 45 46 47 56 50 46 61 51 53 55 50 48 48 48
23 21 7 9 11 28 27 23 18 16 18 18 21 27 31 29 26 17 20 26 27 28 29 29 31 28 26 35 33 35 37 41 40 40 54 45 45 51 44 43 46 46 47 48 48
19 11 11 9 7 8 20 18 17 20 23 25 28 30 24 27 23 27 26 28 23 24 28 33 36 30 26 29 33 33 31 33 39 38 41 43 39 44 41 42 38 41 44 45 45
12 12 15 14 11 13 15 18 16 25 25 28 31 26 23 29 29 29 26 22 23 25 29 33 29 29 30 30 34 30 31 26 30 36 35 32 39 39 31 34 38 40 42 44 44
13 18 19 17 15 15 17 16 18 26 27 27 27 21 28 30 30 28 22 20 28 28 29 26 38 27 30 34 27 29 28 26 20 30 33 31 39 36 35 38 39 41 41 43 42
18 18 19 17 16 18 18 17 21 24 23 25 26 26 28 28 28 27 21 24 26 29 30 30 25 25 34 28 36 35 30 29 16 21 28 34 27 25 31 36 42 44 42 39 38
19 22 17 17 18 16 16 16 26 28 23 24 26 23 25 27 27 23 21 19 32 28 23 21 17 15 24 32 30 23 28 26 27 22 23 30 39 24 31 35 39 43 41 40 36
19 16 16 17 21 19 17 21 16 23 18 19 19 22 20 22 23 15 19 7 23 26 14 20 11 9 10 20 23 22 33 34 34 31 37 37 35 35 33 35 37 37 38 37 33
19 21 20 16 23 21 20 20 18 16 17 26 15 17 19 22 17 14 19 12 17 17 16 14 12 7 11 11 17 36 35 34 30 35 38 38 39 39 36 32 35 29 28 30 32
22 23 21 18 18 16 13 13 16 18 19 21 18 22 26 23 21 10 28 27 24 16 17 9 11 9 12 11 11 27 38 37 34 36 41 42 42 41 32 28 25 22 24 30 36
25 23 20 15 14 16 13 20 20 17 17 15 11 19 21 13 4 14 29 29 21 10 17 16 12 10 13 9 10 15 32 37 38 39 33 35 31 27 25 23 23 24 26 29 33
24 21 20 17 17 21 20 20 16 14 16 14 11 11 9 5 12 31 30 27 23 13 16 15 15 12 13 15 2 2 10 25 27 28 29 32 32 33 29 25 26 30 33 29 30
Wind_Direction
326 323 322 320 317 314 310 307 305 304 299 297 299 301 300 297 292 293 289 296 297 291 285 282 280 274 272 270 272 271 265 263 264 267 260 264 267 272 282 288 271 261 273 296 187
325 322 319 317 316 314 311 308 305 301 300 299 297 299 301 303 296 294 306 306 297 298 291 282 280 281 274 272 270 263 262 254 265 266 265 270 267 265 282 283 279 266 276 296 292
324 321 320 318 314 310 309 307 304 300 299 299 300 300 302 305 304 317 333 319 310 306 297 287 280 280 275 271 266 267 263 271 263 265 267 272 274 272 275 279 275 265 277 299 279
325 319 315 312 311 310 308 307 306 304 301 300 302 303 301 318 296 332 346 332 318 317 302 294 291 283 280 274 273 269 272 272 270 265 264 264 272 272 271 274 275 264 271 285 291
328 319 312 307 303 300 299 300 300 299 299 302 307 312 320 307 303 348 343 332 317 315 306 302 294 290 278 282 279 271 271 272 271 268 267 266 265 267 268 272 277 268 270 275 282
316 312 309 305 302 299 297 296 294 294 294 297 304 311 321 299 334 358 341 332 326 321 305 299 299 295 290 284 280 283 279 276 275 270 269 270 268 268 264 269 272 267 267 268 277
313 310 307 301 296 292 292 293 296 294 296 301 309 317 313 315 327 322 316 315 309 310 310 307 302 299 296 290 288 285 280 279 275 273 270 279 269 265 267 268 269 263 263 266 272
313 310 308 302 294 286 283 282 279 278 290 311 330 326 311 330 327 316 321 308 312 313 305 303 304 305 295 295 290 287 284 277 282 282 273 275 267 261 270 271 267 266 260 261 266
316 312 306 301 292 283 276 269 258 246 256 347 341 343 314 2 331 337 323 316 313 310 311 309 312 304 301 292 289 289 279 280 277 281 281 276 270 262 269 270 270 266 264 259 262
324 312 309 303 294 285 277 262 231 1 22 28 7 339 339 328 340 327 328 323 315 314 310 308 303 299 301 294 286 288 283 282 279 288 285 278 272 270 269 269 267 267 267 265 261
327 319 314 307 297 291 323 359 8 1 8 356 359 341 283 321 339 330 333 331 321 317 306 311 300 296 295 295 292 289 285 283 282 290 287 283 277 273 277 276 272 266 266 266 264
324 321 315 309 301 295 5 10 349 349 326 211 209 212 207 334 325 329 337 328 322 313 309 308 301 303 302 299 297 293 288 285 286 289 287 282 276 275 276 275 275 278 268 266 266
324 319 316 309 302 347 25 19 355 344 339 323 59 18 24 24 356 340 350 338 327 318 315 308 305 306 303 299 295 293 289 287 285 289 285 283 278 273 272 275 274 274 276 276 272
308 304 314 308 339 342 357 353 342 347 345 5 18 17 6 8 347 22 7 357 341 328 327 324 320 310 305 301 301 290 298 293 291 288 279 286 275 276 275 271 275 273 274 274 272
304 302 293 319 332 341 340 338 349 9 340 8 8 21 3 3 351 350 33 352 338 334 331 325 320 315 307 309 311 297 301 292 291 285 287 280 278 274 281 273 274 275 272 274 274
302 296 285 37 7 348 330 333 343 353 349 359 2 356 354 342 331 341 345 352 340 330 328 329 342 334 321 318 311 306 301 293 289 283 275 278 279 272 276 276 275 277 277 271 271
303 290 257 80 63 318 340 349 358 355 356 357 338 328 324 324 329 341 341 337 334 329 330 333 332 336 335 321 326 315 304 295 290 283 276 280 279 274 280 282 279 281 278 272 271
312 282 85 104 89 61 10 16 360 350 345 339 332 326 333 333 339 333 336 337 347 347 335 329 324 334 340 327 317 314 307 293 290 289 293 286 281 280 286 292 299 292 286 276 275
323 85 83 95 103 64 49 16 13 351 344 335 329 334 341 329 332 333 339 343 353 349 336 330 327 335 334 334 321 307 301 307 297 291 289 289 290 295 296 297 300 295 290 280 276
54 68 65 84 70 60 50 39 17 358 350 344 335 343 329 329 330 337 343 351 343 349 345 341 323 337 333 331 330 296 303 300 303 294 296 297 293 295 300 297 302 296 292 282 276
68 64 60 64 57 51 40 26 3 357 359 350 335 332 330 333 334 334 343 341 352 341 340 338 334 325 324 337 306 281 276 280 312 308 302 300 305 312 314 307 301 294 288 282 274
58 50 64 64 49 44 33 16 2 356 360 347 335 338 336 335 339 338 338 346 310 348 357 358 352 282 270 323 316 310 285 293 290 315 311 302 287 316 315 309 303 290 278 274 273
48 57 62 60 39 33 26 16 19 14 18 6 354 348 350 345 343 358 347 337 302 352 16 3 20 344 352 1 330 310 277 271 277 297 275 288 291 306 305 308 301 284 266 259 266
46 40 43 45 33 28 23 25 19 27 19 -0 8 4 356 347 351 351 343 230 273 4 4 10 15 11 345 336 270 265 257 266 283 279 269 271 279 282 280 294 305 289 241 251 260
39 35 36 30 30 27 27 21 21 20 18 11 9 358 347 349 347 355 287 272 266 334 10 23 349 333 301 285 262 246 254 260 251 250 262 266 267 276 282 289 298 258 247 255 257
31 30 30 29 33 26 14 27 21 21 15 8 11 2 356 355 315 251 271 268 257 332 348 352 338 341 283 267 235 244 266 271 282 282 293 293 289 307 280 249 253 263 260 246 242
31 32 29 30 25 21 23 17 16 17 31 18 8 352 343 270 239 262 261 256 251 254 0 14 25 17 26 31 336 238 360 312 314 312 308 285 278 290 283 254 259 259 261 249 256